Flag for U.S.A. Weather past 2 weeks in Cleveland, Ohio, U.S.A.

Now
66 °F

Scattered clouds.


Feels Like: 66 °F
Forecast: 57 / 68 °F
Wind: 9 mph from North

Location: Cleveland-Hopkins International Airport

Current Time: Oct 1, 2014 at 5:18:47 PM

Latest Report: Oct 1, 2014 at 4:51 PM


Visibility: 7 mi

Pressure: 30.03 "Hg

Humidity: 78%

Dew point: 59 °F

Location of ClevelandLocation

Historic Weather in Cleveland — Graph

°F

Cleveland temperature yesterday

Maximum temperature yesterday: 62 °F (at 7:51 AM)
Minimum temperature yesterday: 54 °F (at 4:51 AM)
Average temperature yesterday: 58 °F

Past Weeks' High & Low Weather Summary

 TemperatureHumidityPressure
High79 °F (Sep 20, 3:51 PM)97% (Sep 26, 2:51 AM)30.45 "Hg (Sep 26, 2:51 AM)
Low42 °F (Sep 23, 5:51 AM)40% (Sep 24, 3:51 PM)29.67 "Hg (Sep 21, 7:51 AM)
Average60 °F75%30.14 "Hg
* Reported Sep 16 3:51 PM — Oct 1 3:51 PM, Cleveland, Weather by CustomWeather, © 2014

Note: Actual official high and low records may vary slightly from our data, if they occured in-between our weather recording intervals... More about our weather records

Advertising

Cleveland weather history for previous 24 hours

 ConditionsComfort  
Time TempWeatherWind HumidityBarometerVisibility
3:51 PM
Oct 1
65 °FPartly sunny.9 mph78%30.03 "Hg9 mi
2:51 PM68 °FPartly sunny.7 mph70%30.03 "Hg10 mi
1:51 PM66 °FBroken clouds.7 mph73%30.05 "Hg10 mi
12:51 PM66 °FBroken clouds.No wind73%30.06 "Hg10 mi
11:51 AM64 °FPartly sunny.7 mph75%30.07 "Hg10 mi
10:51 AM63 °FMostly cloudy.5 mph78%30.07 "Hg10 mi
9:51 AM61 °FMore clouds than sun.3 mph83%30.06 "Hg9 mi
8:51 AM58 °FOvercast.No wind90%30.05 "Hg8 mi
7:51 AM57 °FMostly cloudy.No wind90%30.04 "Hg8 mi
7:03 AM57 °FPassing clouds.No wind90%30.03 "Hg10 mi
6:51 AM57 °FPassing clouds.No wind90%30.03 "Hg10 mi
5:51 AM55 °FOvercast.No wind93%30.02 "Hg8 mi
4:51 AM58 °FMostly cloudy.3 mph87%30.01 "Hg10 mi
3:51 AM56 °FOvercast.No wind90%30.01 "Hg10 mi
2:59 AM54 °FPassing clouds.No wind93%30.02 "Hg10 mi
1:51 AM54 °FPassing clouds.No wind90%30.02 "Hg10 mi
12:51 AM54 °FPartly cloudy.No wind90%30.02 "Hg10 mi
11:51 PM
Sep 30
54 °FPassing clouds.No wind86%30.01 "Hg10 mi
10:51 PM57 °FPartly cloudy.5 mph81%30.00 "Hg10 mi
9:51 PM58 °FMostly cloudy.8 mph78%30.00 "Hg10 mi
8:51 PM58 °FOvercast.8 mph81%29.99 "Hg10 mi
7:51 PM59 °FMostly cloudy.12 mph81%29.98 "Hg10 mi
6:51 PM59 °FMostly cloudy.7 mph78%29.97 "Hg10 mi
5:51 PM60 °FBroken clouds.8 mph78%29.96 "Hg10 mi
Weather by CustomWeather, © 2014

See weather overviewHow to use our weather pages